Starlink 1011

operational
NORAD ID: 44717 Int'l Des: 2019-074 Owner: SPXS Country: US Constellation: starlink
LEOCIRCULAR

关于 Starlink 1011

正在加载描述...

实时位置

正在加载3D地球...

即将过境

高度历史

Altitude vs Time

uPlot chart will show altitude changes over time

两行轨道根数

1 44717U 19074E 25306.58335647 .00190466 00000-0 72127-3 0 9999
2 44717 53.0483 18.5277 0004518 329.7236 79.4407 15.86617847 6097
Epoch: Nov 2, 2025 • Age: 25 hours

当前状态

高度 308.9 km
速度 7.73 km/s
星下点 0.33°N, 97.85°E
发射日期 Nov 11, 2019
运行时间 5.9 years
类型 internet

技术详情

分类 Payload
质量 260.00 kg
干质量 248.00 kg
总质量 260.00 kg
长度 0.20 m
直径 2.80 m
跨度 9.00 m
形状 Box + pan
制造商 SPXS
平台类型 Starlink
阶段状态 In Orbit
所有者/国家 SPXS/US

大型星座

Loading constellations...